Regional Weather Roundup
Issued by NWS

Home | Current Version | Previous Version | Text Only | Print | Product List | Glossary On
Versions: 1 2 3 4 5 6 7 8 9 10 11 12 13 14 15 16 17 18 19 20 21 22 23 24 25 26 27 28 29 30 31 32 33 34 35 36 37 38 39 40 41 42 43 44 45 46 47 48 49 50
000
ASUS46 KSTO 192015
RWRCA

NORTHERN AND CENTRAL CA REGIONAL WEATHER ROUNDUP
NATIONAL WEATHER SERVICE SACRAMENTO CA
100 PM PDT THU APR 19 2018

NOTE: FAIR INDICATES FEW OR NO CLOUDS BELOW 12,000 FEET WITH NO
SIGNIFICANT WEATHER AND/OR OBSTRUCTIONS TO VISIBILITY.

CAZ001-003-192100-
NORTHWEST AREA

CITY           SKY/WX    TMP DP  RH WIND       PRES   REMARKS
CRESCENT CITY  SUNNY     56  49  77 NW20G28   30.20F
UKIAH          SUNNY     65  35  33 NW10G17   30.09F
$$

CAZ006-505>513-192100-
BAY AREA

CITY           SKY/WX    TMP DP  RH WIND       PRES   REMARKS
SANTA ROSA     MOSUNNY   68  39  34 N8        30.05F
SAN RAFAEL     N/A       63  MM  MM MISG
NAPA           MOSUNNY   65  43  44 W10       30.07F
CONCORD        SUNNY     67  39  35 W8G18     30.08F
OAKLAND CITY   N/A      MM  MM  MM MISG
OAKLAND        MOSUNNY   62  44  51 W15       30.10F
SAN FRAN CITY  N/A       57  MM  62 MISG
SAN FRAN ARPT  MOSUNNY   62  46  55 W24G30    30.11S
LIVERMORE      MOSUNNY   63  42  46 SW7       30.07F
HAYWARD        SUNNY     62  42  47 W16       30.10F
REDWOOD CITY   N/A       62  MM  54 MISG
MOFFETT ARPT   SUNNY     65  47  52 N18       30.10F
SAN JOSE ARPT  MOSUNNY   65  45  48 NW10      30.10F
$$
CAZ034-037-514>518-192100-
CENTRAL COAST

CITY           SKY/WX    TMP DP  RH WIND       PRES   REMARKS
WATSONVILLE    SUNNY     59  50  72 S7        30.12F
SALINAS        PTSUNNY   58  45  62 W15       30.14S
MONTEREY       PTSUNNY   59  47  64 SW13      30.16S
SAN LUIS OBISP MOSUNNY   61  44  53 NW17      30.11S
SANTA MARIA    MOSUNNY   60  47  61 NW16      30.11F
$$
CAZ015-016-192100-
NORTHERN SACRAMENTO VALLEY

CITY           SKY/WX    TMP DP  RH WIND       PRES   REMARKS
REDDING        SUNNY     68  31  25 N9        30.05F
RED BLUFF      SUNNY     68  35  29 N15       30.06F
OROVILLE       SUNNY     67  39  35 VRB7G20   30.05F
$$
CAZ016>018-192100-
SOUTHERN SACRAMENTO VALLEY

CITY           SKY/WX    TMP DP  RH WIND       PRES   REMARKS
AUBURN         MOSUNNY   59  41  51 W10G16    30.04S
BEALE AFB      SUNNY     65  40  39 NW10      30.02F
LINCOLN        FAIR      63  41  45 NW7       30.03F
MARYSVILLE     SUNNY     67  41  38 N14       30.04F
SAC INTL ARPT  MOSUNNY   67  40  37 N18       30.04F
MATHER AIRPORT MOSUNNY   64  41  42 NW9G18    30.04
DOWNTOWN SAC   N/A       66  MM  MM MISG
SAC EXEC ARPT  SUNNY     66  40  38 NW10G21   30.05S
VACAVILLE      PTSUNNY   65  40  39 NW5       30.07S
TRAVIS AFB     MOSUNNY   66  45  47 SW6       30.05F
$$
CAZ019>021-192100-
SAN JOAQUIN VALLEY

CITY           SKY/WX    TMP DP  RH WIND       PRES   REMARKS
STOCKTON       SUNNY     69  41  36 NW15G30   30.04F
MODESTO        SUNNY     67  39  35 NW20      30.04F
MERCED         SUNNY     65  39  38 NW16G25   30.04F
LEMOORE        MOSUNNY   69  32  25 N15       30.05F
FRESNO         MOSUNNY   65  38  36 W17G25    30.04F
HANFORD        SUNNY     67  36  31 NW10G21   30.06F
PORTERVILLE    MOSUNNY   63  39  41 NW12      30.07F
BAKERSFIELD    MOSUNNY   63  34  33 NW10G20   30.06F
$$
CAZ011-012-071-192100-
NORTHERN MOUNTAINS

CITY           SKY/WX    TMP DP  RH WIND       PRES   REMARKS
YREKA          MOSUNNY   55  32  41 NW12G21   30.15F
MOUNT SHASTA   SUNNY     53  32  44 NW10G23   30.11S
ALTURAS        CLOUDY    46  34  62 N13G21    30.07R
$$
CAZ011-012-071-192100-
SIERRA NEVADA MTNS

CITY           SKY/WX    TMP DP  RH WIND       PRES   REMARKS
BLUE CANYON    MOSUNNY   44  19  36 VRB5      30.03R
TRUCKEE        CLOUDY    39  19  45 NE8       30.01S WCI  34
TAHOE VLY ARPT CLOUDY    39  20  46 NE7       30.00R WCI  34
MAMMOTH LAKES  CLOUDY    37  18  46 NW18G24   29.94R WCI  27
$$




USA.gov is the U.S. government's official web portal to all federal, state and local government web resources and services.